Wetbulb
50.33 51.13 50.94 51.16 50.81 51.11 50.46 50.23 49.73 49.72 49.26 49.55 49.31 48.79 48.10 48.18 48.39 51.29 51.67 58.90 60.48 62.58 63.65 65.16 65.87 65.68 65.36 64.85 64.61 64.81 65.02 64.77 64.52 65.30 67.42 69.62 69.50 69.29 69.11 70.00 69.38 69.06 69.07
50.97 51.11 50.90 51.25 50.85 50.93 50.58 50.24 49.85 49.73 49.23 49.47 49.51 49.41 48.44 48.17 48.36 49.21 50.94 52.54 58.11 58.96 60.08 61.29 62.03 62.43 62.56 62.38 62.67 63.17 63.79 63.62 64.58 64.04 65.22 67.49 68.70 69.35 69.17 68.53 69.58 69.39 68.82
50.95 51.41 50.74 50.86 50.65 50.00 50.41 50.90 50.28 50.40 50.31 51.52 48.81 48.99 49.14 48.34 48.00 48.31 49.26 50.61 52.41 56.48 56.43 57.19 58.32 59.52 60.19 61.36 61.62 61.49 61.56 61.83 62.74 63.57 63.94 63.10 64.49 66.04 67.90 68.97 68.98 69.25 69.65
53.03 52.33 51.74 50.72 50.56 50.91 50.91 50.31 49.75 49.90 49.80 49.81 48.66 48.97 48.57 48.84 48.15 47.47 48.84 48.92 48.52 50.63 53.47 54.40 54.16 55.13 56.03 57.14 58.01 58.91 59.45 59.94 60.42 61.47 62.83 63.16 61.79 62.91 64.63 66.18 68.27 68.63 69.20
53.34 52.50 52.21 51.95 51.88 51.21 50.44 50.14 49.28 48.93 48.72 48.88 49.50 47.95 48.42 48.29 48.32 50.02 46.81 48.50 47.59 48.44 48.00 52.70 52.91 51.90 52.70 53.74 55.01 55.83 56.60 57.61 58.46 59.10 60.03 61.72 62.44 61.63 62.04 63.04 64.88 67.09 68.26
52.68 51.98 52.11 51.24 51.36 50.37 49.67 49.25 48.24 48.77 48.12 48.10 51.27 49.99 48.70 48.64 48.03 47.56 46.55 48.56 47.96 48.60 47.93 47.93 47.25 48.48 52.72 51.27 52.98 54.27 55.51 56.38 56.80 57.06 57.88 58.98 60.40 61.93 61.57 61.25 62.07 63.04 65.36
52.12 51.58 51.43 51.25 51.20 50.55 49.69 49.69 48.56 47.61 48.06 48.44 46.60 46.74 47.20 48.42 47.07 46.71 46.62 46.05 47.01 47.55 47.02 47.24 47.04 46.41 46.61 52.50 53.13 53.47 53.50 54.78 55.52 55.87 56.29 57.18 58.39 59.33 61.12 61.58 61.13 61.67 62.64
51.73 51.75 51.20 50.81 50.46 49.61 49.15 49.21 48.66 47.67 48.03 47.88 44.89 43.67 41.84 44.34 45.95 45.72 45.18 46.36 45.33 46.12 46.17 46.61 45.43 44.40 44.62 45.28 47.87 52.58 52.06 52.42 53.61 55.09 55.81 56.38 57.02 57.87 59.11 60.08 61.08 61.05 61.41
51.54 50.89 51.02 50.43 49.60 49.68 49.35 49.81 49.39 48.54 46.39 47.58 46.92 44.08 40.00 38.95 40.99 44.46 44.69 44.62 44.23 44.12 44.63 44.55 44.50 44.55 43.97 43.34 47.54 49.19 54.42 51.11 52.46 53.91 54.80 55.41 56.19 56.99 57.66 58.82 59.93 60.78 61.03
51.04 51.29 50.65 50.01 49.39 49.95 49.23 49.22 50.87 48.35 47.29 45.14 46.50 48.68 44.71 43.46 39.27 38.18 42.67 43.85 44.69 44.67 42.95 43.00 43.47 43.73 43.14 42.78 47.97 52.42 52.76 52.51 52.11 52.47 53.82 54.61 55.39 56.21 56.94 57.59 58.60 59.72 60.58
50.35 51.12 50.60 49.86 49.53 49.26 48.68 47.98 47.34 46.69 46.18 45.27 44.58 44.47 43.67 43.18 42.24 39.20 37.28 39.35 41.57 42.40 42.37 41.82 41.76 41.97 42.72 42.90 42.94 46.90 51.92 51.75 51.46 51.67 52.46 53.45 54.56 55.52 56.39 57.26 58.07 58.71 59.37
49.87 50.18 50.82 49.47 49.24 48.96 48.52 48.00 47.50 46.86 45.59 44.63 44.28 43.42 42.34 40.91 39.90 38.75 36.86 36.74 37.04 38.90 40.56 40.67 40.64 41.17 42.06 42.68 47.34 52.63 52.11 51.27 51.32 51.33 51.61 52.18 53.28 54.25 55.20 56.21 57.17 58.09 58.85
49.23 48.97 48.93 48.62 48.35 47.89 47.43 46.77 45.67 44.76 44.11 43.05 42.31 41.95 41.88 41.04 40.96 39.42 37.38 35.61 34.99 36.48 37.61 39.34 40.10 40.66 43.53 41.70 42.82 51.78 52.21 50.51 50.40 50.62 50.87 51.47 51.99 52.66 53.81 54.90 55.90 56.98 57.94
49.05 48.55 47.79 47.27 46.87 47.00 45.89 44.71 43.59 43.40 42.83 41.73 41.00 40.58 40.35 40.40 39.96 39.01 37.40 35.05 33.97 34.25 35.47 36.39 38.72 39.77 40.32 40.75 45.11 52.87 44.73 50.24 50.10 50.50 50.81 51.09 50.99 51.63 52.72 53.76 54.60 55.33 55.81
48.82 46.66 46.37 45.08 44.49 44.28 43.80 42.61 41.39 40.78 40.59 39.90 39.43 38.99 38.23 38.82 38.95 38.63 38.04 37.07 34.41 32.53 33.87 37.29 35.08 38.69 39.39 39.73 42.53 42.40 41.04 47.87 49.67 49.73 49.88 49.97 50.24 50.72 51.76 52.94 53.56 54.04 54.71
45.17 44.92 44.61 43.91 43.57 43.05 42.31 41.07 40.27 40.57 39.44 39.07 39.92 38.52 37.59 37.89 38.19 38.16 37.78 37.28 36.26 34.02 33.05 36.97 35.55 37.37 38.96 42.49 43.26 43.60 41.46 49.20 49.20 49.25 49.52 50.66 49.52 50.01 50.68 51.77 51.94 51.87 52.30
44.16 43.84 43.60 42.86 42.30 41.63 40.82 39.31 38.88 39.22 38.56 37.95 38.12 38.17 38.14 38.28 37.30 37.45 37.50 37.13 36.28 35.64 34.52 37.48 36.62 37.89 37.46 37.38 39.27 40.04 42.26 40.44 40.99 48.78 49.20 50.27 50.59 50.05 50.02 50.51 50.63 50.96 51.23
43.40 42.76 42.32 41.58 40.93 40.64 39.88 38.91 38.55 38.72 37.93 37.34 37.59 37.61 37.60 41.21 36.86 36.87 36.52 35.80 35.89 36.11 35.89 34.64 37.06 36.60 36.37 37.36 37.82 38.17 41.95 44.17 41.18 46.92 48.62 48.94 49.21 49.71 50.68 49.90 50.28 50.47 50.53
41.13 41.30 41.15 40.28 40.35 40.41 39.77 39.39 38.97 38.52 37.98 37.68 37.52 37.08 37.14 37.22 36.14 36.14 36.11 35.62 35.76 38.61 35.84 35.65 36.00 36.29 36.18 37.08 37.65 39.00 40.30 42.69 44.58 47.36 48.31 48.41 48.48 48.80 49.66 50.29 50.34 50.56 50.64
39.74 39.35 39.52 40.12 40.60 40.27 40.32 39.94 39.44 38.10 37.37 38.07 38.85 39.10 38.66 37.94 36.51 35.74 36.46 35.96 37.83 36.04 36.37 37.04 36.39 36.69 37.03 38.78 37.96 38.22 38.04 39.10 40.31 43.40 45.71 46.76 47.68 48.15 48.90 48.76 49.16 49.74 49.43
39.91 39.84 39.68 39.91 39.97 40.22 41.46 38.64 38.81 37.59 36.99 37.39 38.71 38.86 39.13 40.84 45.17 44.47 42.11 39.48 38.18 39.01 39.59 39.28 38.61 38.20 38.01 37.91 37.46 38.91 39.20 40.13 40.84 41.92 39.72 39.93 40.84 42.20 42.66 46.47 47.24 49.19 49.60
39.29 39.41 39.11 39.21 38.54 41.68 45.72 46.15 44.29 37.98 39.75 38.39 35.98 37.07 37.60 41.72 41.16 44.30 44.99 45.27 43.96 39.85 39.24 39.14 38.62 38.18 38.38 38.46 40.11 39.08 38.03 36.75 34.92 40.05 37.84 38.60 40.95 40.75 41.56 42.45 46.97 48.61 49.70
38.54 38.11 37.95 38.27 37.80 38.02 45.19 45.56 45.60 41.23 36.63 35.16 35.80 36.60 37.60 39.68 40.93 39.01 42.15 44.09 44.06 44.62 44.51 41.15 39.48 39.96 38.70 39.15 39.64 38.02 38.27 38.48 37.27 39.07 37.31 36.67 39.02 39.76 41.58 44.61 47.82 49.10 49.80
37.41 37.19 37.41 37.79 37.09 38.93 44.69 45.09 44.32 36.31 35.64 36.61 38.10 37.65 37.17 37.91 38.55 39.66 39.19 38.78 38.70 39.29 40.19 41.02 39.77 39.46 39.45 40.42 40.64 40.97 40.94 41.08 41.67 42.16 42.72 37.61 38.31 37.71 40.24 41.98 47.61 48.77 49.02
36.84 36.87 37.59 36.77 35.98 35.91 43.19 42.95 41.35 37.58 38.14 38.15 39.00 37.98 37.59 37.76 42.04 44.11 40.84 39.80 38.23 39.30 43.54 45.26 45.60 45.89 46.41 46.60 45.55 43.18 40.69 39.35 37.47 38.03 39.60 39.08 38.80 38.22 38.65 40.10 42.33 47.22 48.33
37.48 38.02 37.04 36.48 39.76 34.75 40.85 42.25 40.74 38.25 37.13 36.64 37.92 38.43 41.85 40.64 43.76 43.96 40.60 39.41 36.94 37.69 40.09 39.40 39.70 42.14 42.87 42.02 44.84 41.77 39.72 36.52 35.95 36.21 37.90 38.59 37.06 36.42 34.13 38.97 39.94 40.95 41.69
MSLP
1018.92 1019.27 1019.56 1019.72 1019.74 1019.85 1020.07 1020.27 1020.35 1020.43 1020.52 1020.51 1020.55 1020.70 1020.80 1020.96 1021.08 1021.45 1021.65 1021.41 1021.28 1021.08 1020.86 1020.67 1020.48 1020.51 1020.55 1020.60 1020.48 1020.28 1020.18 1020.08 1019.91 1019.81 1019.62 1019.51 1019.37 1019.20 1019.15 1019.27 1019.32 1019.40 1019.55
1018.86 1019.27 1019.60 1019.82 1020.00 1020.04 1020.11 1020.27 1020.44 1020.57 1020.69 1020.66 1020.85 1020.90 1021.10 1021.08 1021.27 1021.36 1021.77 1021.79 1021.61 1021.60 1021.45 1021.28 1021.21 1021.13 1021.07 1020.98 1020.86 1020.85 1020.70 1020.56 1020.41 1020.14 1019.92 1019.75 1019.71 1019.61 1019.48 1019.39 1019.48 1019.50 1019.63
1018.82 1019.25 1019.65 1019.94 1020.12 1020.17 1020.25 1020.36 1020.49 1020.67 1020.87 1020.84 1021.15 1021.04 1021.08 1021.24 1021.37 1021.52 1021.79 1022.09 1022.07 1021.94 1021.90 1021.82 1021.73 1021.60 1021.48 1021.42 1021.32 1021.32 1021.22 1021.00 1020.82 1020.64 1020.32 1020.18 1019.97 1019.82 1019.67 1019.62 1019.67 1019.74 1019.73
1018.74 1019.17 1019.65 1020.03 1020.16 1020.37 1020.55 1020.80 1021.00 1021.12 1021.26 1021.28 1021.35 1021.20 1021.16 1021.22 1021.43 1021.62 1021.77 1022.07 1022.25 1022.36 1022.26 1022.18 1022.17 1022.09 1021.88 1021.76 1021.67 1021.59 1021.55 1021.41 1021.28 1021.11 1020.82 1020.53 1020.31 1020.07 1019.83 1019.77 1019.70 1019.81 1019.88
1018.71 1019.22 1019.69 1020.01 1020.23 1020.64 1020.83 1020.95 1021.18 1021.37 1021.59 1021.57 1021.51 1021.40 1021.27 1021.27 1021.27 1021.33 1021.91 1021.98 1022.16 1022.20 1022.31 1022.25 1022.27 1022.32 1022.20 1022.09 1021.99 1021.82 1021.70 1021.60 1021.52 1021.48 1021.27 1021.02 1020.62 1020.29 1020.16 1020.00 1019.89 1019.78 1019.86
1018.88 1019.34 1019.75 1020.01 1020.27 1020.75 1021.06 1021.10 1021.31 1021.46 1021.64 1021.75 1021.72 1021.69 1021.43 1021.14 1021.26 1021.31 1021.65 1021.71 1021.91 1022.03 1022.05 1022.08 1022.21 1022.19 1022.21 1022.20 1022.13 1022.11 1021.98 1021.78 1021.64 1021.52 1021.42 1021.25 1020.97 1020.67 1020.38 1020.22 1020.09 1019.96 1019.87
1018.93 1019.34 1019.76 1019.98 1020.23 1020.75 1020.92 1021.12 1021.30 1021.60 1021.84 1021.83 1022.17 1022.21 1021.69 1021.18 1021.23 1021.35 1021.36 1021.58 1021.71 1021.77 1021.82 1021.98 1022.03 1022.02 1021.93 1021.80 1021.82 1021.85 1022.03 1021.98 1021.80 1021.61 1021.41 1021.25 1021.13 1020.90 1020.64 1020.37 1020.19 1020.03 1019.89
1018.83 1019.27 1019.66 1020.03 1020.21 1020.69 1020.92 1021.14 1021.41 1021.97 1022.11 1021.87 1022.46 1022.69 1022.61 1021.92 1021.68 1021.43 1021.49 1021.61 1021.52 1021.43 1021.56 1021.58 1021.76 1021.83 1021.83 1021.92 1021.84 1021.70 1021.87 1021.91 1021.92 1021.79 1021.59 1021.32 1021.13 1020.94 1020.70 1020.47 1020.24 1020.00 1019.86
1018.66 1019.05 1019.43 1019.83 1020.18 1020.53 1020.93 1021.13 1021.30 1021.75 1022.31 1022.17 1022.22 1022.63 1022.91 1022.88 1022.46 1022.05 1021.92 1021.85 1021.96 1021.83 1021.60 1021.48 1021.51 1021.50 1021.62 1021.76 1021.72 1021.78 1021.69 1021.85 1021.79 1021.74 1021.63 1021.41 1021.13 1020.90 1020.68 1020.47 1020.22 1019.98 1019.84
1018.48 1018.86 1019.22 1019.61 1020.00 1020.32 1020.67 1020.81 1020.96 1021.39 1021.92 1022.43 1022.36 1022.13 1022.22 1022.64 1023.06 1023.05 1022.45 1022.08 1021.88 1021.75 1021.68 1021.52 1021.39 1021.23 1021.30 1021.45 1021.50 1021.52 1021.53 1021.52 1021.56 1021.66 1021.59 1021.37 1021.10 1020.87 1020.63 1020.37 1020.07 1019.94 1019.81
1018.40 1018.77 1019.07 1019.37 1019.74 1020.07 1020.35 1020.69 1020.97 1021.39 1021.64 1022.08 1022.36 1022.48 1022.55 1022.61 1022.71 1023.14 1022.99 1022.72 1022.44 1022.02 1021.84 1021.70 1021.49 1021.43 1021.23 1021.12 1021.18 1021.33 1021.29 1021.35 1021.50 1021.46 1021.44 1021.29 1021.05 1020.78 1020.55 1020.32 1020.05 1019.73 1019.68
1018.51 1018.57 1018.81 1019.29 1019.76 1020.25 1020.72 1020.93 1021.06 1021.41 1021.71 1021.87 1022.09 1022.28 1022.61 1022.93 1023.01 1023.13 1023.18 1022.97 1022.81 1022.55 1022.09 1021.75 1021.60 1021.33 1021.07 1020.95 1020.74 1020.66 1020.77 1020.95 1020.98 1021.03 1021.03 1021.03 1020.92 1020.74 1020.46 1020.17 1019.92 1019.63 1019.38
1018.60 1018.93 1019.16 1019.58 1020.10 1020.50 1020.80 1021.06 1021.43 1021.62 1021.83 1022.05 1022.19 1022.34 1022.37 1022.66 1022.77 1022.95 1023.08 1023.00 1022.92 1022.57 1022.33 1021.89 1021.59 1021.30 1020.83 1020.60 1020.47 1020.16 1020.12 1020.25 1020.48 1020.63 1020.67 1020.67 1020.57 1020.45 1020.30 1020.04 1019.76 1019.46 1019.15
1018.64 1019.05 1019.47 1019.75 1020.17 1020.57 1020.88 1021.16 1021.50 1021.63 1021.76 1021.95 1022.11 1022.23 1022.36 1022.39 1022.45 1022.65 1022.97 1023.14 1022.94 1022.65 1022.28 1021.76 1021.57 1021.26 1021.01 1020.64 1020.30 1019.80 1019.80 1019.83 1019.89 1020.02 1020.09 1020.14 1020.09 1020.07 1019.97 1019.71 1019.49 1019.30 1019.23
1018.96 1019.31 1019.65 1020.09 1020.45 1020.71 1020.91 1021.13 1021.49 1021.65 1021.83 1021.97 1022.04 1022.11 1022.23 1022.23 1022.26 1022.31 1022.40 1022.60 1022.84 1022.74 1022.02 1021.20 1021.79 1021.26 1020.87 1020.51 1020.17 1019.92 1019.85 1019.62 1019.35 1019.46 1019.62 1019.68 1019.69 1019.67 1019.56 1019.39 1019.15 1019.11 1019.03
1019.34 1019.81 1020.13 1020.36 1020.61 1020.74 1020.92 1021.16 1021.45 1021.59 1021.73 1021.81 1021.84 1021.92 1022.00 1022.03 1022.03 1022.02 1022.06 1022.15 1022.39 1022.53 1021.85 1021.15 1021.51 1021.04 1020.57 1020.27 1019.93 1019.53 1019.38 1019.13 1018.98 1018.96 1019.06 1019.09 1019.11 1019.07 1019.04 1018.91 1018.90 1018.96 1019.03
1019.62 1019.95 1020.26 1020.54 1020.77 1020.90 1020.99 1021.22 1021.40 1021.52 1021.62 1021.68 1021.66 1021.65 1021.71 1021.66 1021.66 1021.64 1021.60 1021.58 1021.75 1021.90 1021.54 1020.65 1020.75 1020.42 1020.15 1019.97 1019.80 1019.52 1019.40 1019.21 1018.91 1018.59 1018.42 1018.30 1018.23 1018.20 1018.30 1018.35 1018.39 1018.49 1018.61
1019.64 1020.00 1020.31 1020.60 1020.80 1020.92 1021.01 1021.16 1021.32 1021.40 1021.46 1021.50 1021.47 1021.47 1021.47 1021.32 1021.23 1021.13 1021.15 1021.16 1021.13 1020.92 1020.84 1020.38 1020.21 1020.01 1019.79 1019.47 1019.35 1019.28 1018.86 1018.57 1018.51 1018.24 1018.15 1017.88 1017.60 1017.61 1017.50 1017.59 1017.67 1017.77 1017.93
1019.75 1019.94 1020.27 1020.53 1020.71 1020.83 1020.97 1021.09 1021.19 1021.24 1021.27 1021.29 1021.25 1021.22 1021.14 1020.99 1020.88 1020.64 1020.47 1020.46 1020.33 1020.13 1020.06 1019.88 1019.51 1019.34 1019.17 1019.00 1018.91 1018.76 1018.59 1018.31 1018.05 1017.74 1017.42 1017.27 1017.12 1017.06 1016.90 1016.81 1016.88 1017.07 1017.19
1019.85 1020.02 1020.20 1020.38 1020.53 1020.66 1020.78 1020.84 1020.89 1020.95 1021.03 1021.07 1021.08 1020.98 1020.82 1020.62 1020.37 1020.06 1019.87 1019.80 1019.69 1019.75 1019.58 1019.59 1019.49 1019.36 1019.23 1018.74 1018.71 1018.63 1018.38 1018.11 1017.71 1017.37 1017.02 1016.74 1016.55 1016.49 1016.27 1016.17 1016.21 1016.20 1016.33
1019.96 1020.11 1020.21 1020.28 1020.36 1020.41 1020.45 1020.47 1020.55 1020.68 1020.83 1020.90 1020.81 1020.72 1020.50 1020.09 1019.57 1019.18 1019.01 1019.08 1019.15 1019.02 1019.05 1018.92 1018.81 1018.79 1018.60 1018.44 1018.35 1017.97 1017.84 1017.62 1017.14 1016.89 1016.73 1016.53 1016.50 1016.21 1015.90 1015.64 1015.66 1015.52 1015.49
1020.12 1020.12 1020.12 1020.14 1020.18 1020.12 1020.09 1020.08 1020.15 1020.32 1020.42 1020.50 1020.47 1020.16 1019.90 1019.63 1019.31 1018.89 1018.49 1018.09 1017.94 1017.84 1017.89 1017.95 1017.64 1017.54 1017.47 1017.53 1017.50 1017.39 1017.18 1017.15 1016.83 1016.12 1016.08 1015.75 1015.84 1015.66 1015.38 1015.21 1014.94 1014.78 1014.58
1020.02 1020.04 1020.05 1020.05 1020.09 1020.00 1019.94 1019.88 1019.80 1019.79 1019.98 1020.02 1019.93 1019.73 1019.39 1019.04 1018.62 1018.37 1018.02 1017.70 1017.25 1017.13 1016.83 1016.74 1016.67 1016.64 1016.63 1016.56 1016.48 1016.35 1016.31 1016.31 1015.93 1015.72 1015.73 1015.28 1015.11 1015.05 1014.68 1014.36 1014.07 1013.89 1013.76
1020.19 1020.19 1020.15 1020.08 1020.06 1019.96 1019.79 1019.55 1019.38 1019.43 1019.50 1019.47 1019.38 1019.19 1018.87 1018.41 1017.96 1017.55 1017.17 1017.04 1016.78 1016.60 1016.37 1016.19 1015.89 1015.57 1015.39 1015.13 1015.13 1015.17 1015.12 1015.20 1014.95 1014.83 1014.90 1014.73 1014.62 1014.34 1014.04 1013.69 1013.32 1013.11 1012.98
1020.39 1020.38 1020.23 1020.10 1019.98 1019.77 1019.50 1019.23 1019.06 1019.05 1019.14 1018.99 1018.82 1018.59 1018.22 1017.64 1017.16 1016.56 1016.25 1016.29 1016.20 1015.80 1015.46 1015.09 1014.52 1014.14 1013.87 1013.76 1013.82 1013.99 1014.10 1014.22 1014.27 1014.35 1014.33 1014.31 1013.95 1013.85 1013.59 1013.14 1012.72 1012.44 1012.23
1020.31 1020.20 1020.13 1019.95 1019.70 1019.41 1019.21 1018.99 1019.05 1018.81 1018.83 1018.70 1018.32 1017.92 1017.47 1016.93 1016.27 1015.80 1015.53 1015.54 1015.39 1015.06 1014.88 1014.49 1014.26 1013.87 1013.76 1013.60 1013.13 1013.06 1013.29 1013.63 1013.74 1013.55 1013.19 1013.53 1013.40 1013.50 1013.03 1012.18 1012.06 1011.82 1011.64
Wind_Speed
4 5 4 2 3 3 3 3 4 4 4 5 6 6 6 6 6 4 3 12 13 14 15 15 16 16 16 15 16 16 16 15 14 13 14 14 10 6 2 4 5 4 3
5 4 4 3 2 3 3 4 3 3 3 3 4 6 5 4 5 6 4 4 11 12 12 13 13 13 13 13 14 14 14 15 15 14 12 13 14 12 8 2 4 4 4
5 5 5 3 3 1 4 4 4 3 4 4 4 5 4 3 4 6 4 3 4 8 10 11 11 12 12 13 12 12 13 13 13 13 12 12 11 11 12 10 5 5 5
6 4 4 4 4 4 3 3 3 3 2 3 3 3 2 3 4 5 5 4 3 2 5 7 8 9 10 11 11 11 11 12 12 13 12 13 10 9 10 10 10 6 8
5 5 4 4 4 2 2 2 2 3 3 3 3 3 2 3 3 2 5 6 4 2 2 2 3 2 4 6 9 10 10 10 11 11 11 12 12 9 9 9 9 8 7
5 4 3 5 4 3 1 1 1 1 2 1 3 5 5 2 3 4 3 4 6 5 4 3 1 2 4 2 6 9 9 11 12 11 11 11 11 12 10 9 9 8 7
5 5 3 4 4 4 3 3 1 2 2 1 3 4 4 6 4 5 4 3 2 6 4 4 3 2 2 4 9 8 8 12 13 13 12 12 12 12 12 11 9 9 8
7 5 5 4 5 3 0 1 1 1 2 0 3 1 3 6 4 1 2 4 6 2 1 2 3 1 1 2 5 5 7 7 10 12 14 14 14 14 13 13 12 10 9
7 6 6 5 4 4 3 3 3 4 2 3 1 4 2 2 3 3 3 2 4 2 4 4 1 2 3 3 3 5 5 5 9 14 14 15 15 15 15 15 14 13 12
6 6 4 4 4 3 4 3 3 3 3 3 3 1 2 4 3 4 4 5 6 6 5 3 4 4 3 2 5 5 6 11 12 12 14 15 16 16 16 16 16 15 15
5 6 6 4 3 2 1 1 3 3 1 3 2 1 1 1 1 2 4 4 4 4 4 3 3 3 4 4 3 5 9 10 10 13 15 17 17 17 17 17 17 17 16
3 3 3 3 3 4 4 4 3 3 2 2 1 1 1 2 3 2 3 3 4 4 4 5 5 5 4 4 6 8 8 12 14 16 16 16 17 18 18 18 18 18 17
3 3 4 3 3 5 5 5 4 3 2 1 2 2 1 1 1 1 1 3 4 3 4 4 5 5 5 4 6 11 10 12 11 13 16 18 18 17 18 18 18 18 17
4 6 6 6 6 5 3 3 1 0 2 2 4 3 2 3 2 2 3 2 5 3 3 8 3 5 5 4 8 14 4 11 12 15 16 16 16 17 18 18 17 16 15
5 7 6 5 5 4 3 2 1 2 3 3 4 3 2 3 3 3 3 3 4 6 9 8 2 5 5 5 8 5 5 9 13 15 17 17 18 19 19 19 18 17 17
6 6 4 4 3 1 2 1 2 3 3 4 3 4 3 3 4 3 3 3 2 4 9 5 4 5 5 8 10 10 6 13 14 18 19 18 21 22 22 20 18 18 19
6 4 4 2 1 1 2 2 4 5 4 4 4 5 6 5 4 4 4 4 4 4 8 8 4 5 6 6 4 5 6 6 5 16 21 21 20 21 21 22 21 21 21
5 2 3 3 2 3 3 3 4 5 5 6 6 6 6 5 6 5 4 6 5 6 6 12 8 4 6 4 5 7 6 6 5 13 19 21 21 19 19 21 21 22 21
1 1 4 4 4 3 3 4 4 5 5 6 6 6 7 7 7 5 6 6 5 6 5 6 9 4 4 3 5 4 4 7 6 15 19 21 23 22 22 20 18 20 20
1 2 2 1 1 3 4 5 5 5 5 5 6 6 7 7 7 7 7 5 5 4 3 3 4 4 3 4 3 7 8 4 6 7 13 16 19 21 21 19 20 21 22
3 3 3 4 4 4 3 4 3 4 5 6 7 7 9 14 22 18 9 6 8 8 8 9 10 10 10 10 9 7 7 7 9 8 6 4 4 6 8 16 18 20 20
4 4 5 4 4 3 10 15 10 4 6 6 7 8 6 15 14 22 23 24 19 10 10 9 9 10 11 8 7 7 10 9 7 6 6 9 5 7 7 6 16 20 19
4 5 4 4 5 5 12 16 16 7 4 5 7 8 8 9 15 10 16 23 20 23 22 13 9 8 10 11 11 11 10 10 9 7 2 7 3 7 6 8 19 20 18
4 4 5 5 5 4 15 17 17 5 5 7 10 11 9 11 11 14 11 9 8 9 10 9 10 11 9 7 8 10 11 11 9 7 4 9 4 5 5 6 17 17 17
4 4 4 5 6 6 14 17 15 3 5 9 9 10 11 11 18 23 13 12 9 9 12 20 22 22 22 21 18 7 7 6 6 4 5 7 9 9 6 6 7 17 19
4 4 5 6 9 7 11 14 14 6 8 7 8 11 17 16 23 23 13 9 10 8 7 9 9 10 12 11 18 7 4 6 6 5 4 4 4 3 4 6 6 6 6
Wind_Direction
132 114 141 137 89 97 110 78 75 71 74 77 57 75 79 79 84 102 70 60 52 48 46 46 46 45 44 39 36 35 39 36 35 31 27 21 16 8 166 163 148 146 147
118 127 119 117 113 91 88 112 128 84 46 76 86 72 58 77 107 106 125 75 70 58 50 47 44 41 34 32 36 35 32 28 25 26 27 30 27 19 2 298 214 189 179
136 134 134 133 136 156 81 49 37 46 46 19 58 87 95 47 78 101 102 137 79 73 61 45 38 34 32 28 27 25 23 21 20 18 19 14 20 21 24 20 296 252 234
132 124 116 112 100 63 71 74 51 12 40 68 360 2 89 95 60 112 110 76 65 86 63 60 31 19 20 11 8 9 11 11 12 8 7 8 8 14 18 19 20 325 282
135 121 123 131 120 118 78 65 72 78 19 20 321 329 310 137 131 62 142 139 153 130 124 89 3 329 345 13 354 347 346 350 352 352 354 353 353 1 4 5 10 19 357
150 143 138 140 130 123 147 111 161 120 139 239 342 327 304 244 182 166 141 160 186 179 180 173 212 283 236 354 340 337 337 338 333 332 331 333 338 336 333 337 344 342 356
170 140 148 160 140 152 190 152 72 85 318 37 42 330 324 294 212 171 158 208 231 193 182 194 216 235 276 317 322 314 310 323 321 321 320 317 319 319 318 317 316 321 322
162 175 164 179 160 155 193 103 137 14 333 265 162 69 316 336 15 120 161 218 242 227 155 252 254 234 289 277 268 277 259 303 319 322 320 314 309 304 304 303 302 301 302
172 177 178 166 181 156 185 201 182 160 208 311 320 156 357 259 359 325 314 15 342 310 283 272 257 311 289 277 314 302 293 280 293 307 306 307 305 301 296 293 291 292 290
167 171 180 188 194 170 180 205 194 179 151 238 324 295 204 173 211 313 330 321 319 313 300 274 272 255 231 265 281 271 283 302 297 296 301 302 301 297 292 289 284 281 286
178 184 190 192 182 186 225 125 38 37 184 169 187 303 347 323 266 201 282 307 334 314 326 325 303 280 263 237 236 248 277 287 292 288 293 297 297 295 292 288 284 276 274
165 137 127 84 76 63 50 54 54 42 360 14 351 321 191 207 255 263 282 279 254 288 297 304 310 300 289 259 232 229 263 272 280 287 290 292 292 293 290 286 282 277 271
124 134 89 108 89 79 66 64 48 32 7 0 326 298 329 297 253 262 289 277 277 283 290 286 288 288 281 268 250 233 223 246 272 283 284 289 289 288 287 286 281 277 270
110 111 87 81 101 118 115 107 97 283 262 287 292 287 268 270 261 237 220 239 294 287 276 266 290 301 305 309 308 281 219 241 262 270 270 273 283 287 282 277 275 272 274
102 84 97 87 81 85 93 86 61 322 332 309 292 288 270 266 266 262 261 219 198 289 282 276 289 292 299 309 294 295 270 254 270 276 281 289 290 284 279 273 270 276 278
86 101 96 87 95 38 339 329 253 254 252 264 251 263 269 266 273 267 256 256 244 230 277 291 252 255 277 289 288 295 283 287 289 283 277 272 273 270 271 265 267 268 269
107 101 109 117 318 301 311 326 302 293 293 288 289 272 268 260 257 255 248 238 241 224 262 285 242 252 264 259 300 312 305 295 282 286 277 271 266 263 259 260 261 261 264
115 127 76 37 346 316 310 309 303 306 294 292 287 293 283 285 278 262 250 246 238 237 247 271 271 258 242 267 275 273 269 282 274 285 287 289 289 296 266 254 258 258 261
128 206 164 201 233 259 305 301 293 293 295 292 288 285 279 275 270 255 247 243 241 257 256 266 275 254 244 261 273 279 293 287 283 288 283 277 275 273 274 264 254 254 253
341 315 295 301 352 320 292 279 273 279 300 310 309 302 293 287 281 273 266 262 279 278 287 302 303 296 288 278 272 279 278 250 269 271 273 278 273 266 270 272 268 256 250
351 328 321 304 273 260 255 278 284 294 306 298 287 290 290 278 290 298 293 284 266 271 277 272 263 261 265 272 264 267 259 268 272 257 252 249 265 260 263 264 270 276 250
317 291 275 278 304 289 301 302 305 266 272 280 286 288 281 304 291 288 287 288 281 264 258 253 257 249 251 254 253 252 263 267 269 232 235 258 229 241 247 240 245 261 249
270 280 310 326 308 303 304 299 298 296 277 276 274 274 284 282 289 283 282 286 291 293 291 286 273 254 253 236 236 245 245 244 245 260 236 258 209 242 238 249 254 253 258
343 333 324 316 319 308 308 301 304 305 286 274 292 291 278 283 274 279 274 272 270 263 273 272 268 266 249 236 217 225 239 251 247 245 265 269 262 248 249 237 252 257 261
337 315 305 314 308 291 300 302 302 305 305 291 278 283 278 276 279 290 289 283 274 269 278 283 288 288 285 280 279 265 257 253 260 243 228 236 260 261 246 251 242 254 265
299 310 309 290 286 297 309 327 324 309 304 285 273 272 283 290 294 298 295 283 273 267 283 280 284 292 296 303 293 275 216 240 246 252 223 222 255 227 267 238 232 236 237